Total_Precipitation_Accumulation
1.77 1.86 1.87 1.87 1.87 1.81 1.82 1.88 1.97 1.92 1.75 1.56 1.52 1.47 1.51 1.53 1.64 1.31 1.31 1.47 1.32 1.22 1.15 1.10 1.08 1.03 0.98 0.97 0.94 0.93 0.96 1.03 1.14 1.23 1.30 1.38 1.51 1.69
1.50 1.62 1.70 1.75 1.85 1.88 1.95 1.97 1.98 1.99 1.93 1.69 1.62 1.58 1.55 1.49 1.74 1.47 1.43 1.47 1.28 1.14 1.03 0.96 0.93 0.89 0.85 0.84 0.86 0.86 0.85 0.85 0.88 0.94 1.01 1.08 1.18 1.31
1.30 1.39 1.47 1.52 1.63 1.70 1.76 1.77 1.86 1.91 1.90 1.75 1.65 1.63 1.60 1.59 1.62 1.49 1.38 1.30 1.21 1.13 0.97 0.89 0.87 0.84 0.82 0.82 0.83 0.82 0.82 0.81 0.82 0.84 0.87 0.93 0.97 1.03
1.10 1.17 1.23 1.27 1.35 1.37 1.47 1.52 1.55 1.62 1.68 1.76 1.81 1.75 1.68 1.65 1.55 1.41 1.23 1.08 1.05 1.05 0.94 0.89 0.88 0.89 0.90 0.91 0.89 0.86 0.80 0.72 0.71 0.74 0.78 0.78 0.78 0.83
0.87 0.93 1.01 1.07 1.09 1.08 1.13 1.17 1.26 1.35 1.54 1.62 1.67 1.71 1.68 1.68 1.69 1.44 1.28 1.24 0.98 0.94 0.87 0.86 0.86 0.85 0.84 0.83 0.80 0.78 0.75 0.65 0.56 0.56 0.61 0.66 0.68 0.68
0.73 0.77 0.79 0.81 0.81 0.83 0.84 0.90 1.02 1.23 1.41 1.49 1.46 1.47 1.53 1.49 1.59 1.53 1.42 1.32 1.13 0.85 0.79 0.72 0.73 0.73 0.72 0.67 0.66 0.64 0.65 0.66 0.63 0.58 0.55 0.52 0.52 0.51
0.62 0.61 0.59 0.61 0.65 0.64 0.63 0.72 0.89 1.11 1.23 1.34 1.38 1.32 1.30 1.33 1.36 1.31 1.33 1.32 1.20 0.99 0.91 0.74 0.67 0.68 0.71 0.70 0.68 0.61 0.56 0.53 0.54 0.52 0.50 0.49 0.48 0.47
0.59 0.52 0.46 0.46 0.47 0.50 0.53 0.60 0.72 0.85 0.97 1.11 1.18 1.19 1.18 1.18 1.24 1.25 1.26 1.30 1.29 1.11 1.05 0.95 0.77 0.84 0.81 0.73 0.68 0.60 0.58 0.56 0.55 0.54 0.53 0.52 0.50 0.48
0.63 0.62 0.51 0.41 0.47 0.51 0.53 0.56 0.60 0.64 0.75 0.91 1.03 1.05 1.07 1.15 1.26 1.27 1.29 1.29 1.28 1.16 1.16 1.14 0.99 0.95 0.76 0.64 0.66 0.59 0.55 0.55 0.55 0.52 0.53 0.53 0.53 0.53
0.64 0.64 0.64 0.60 0.52 0.51 0.49 0.54 0.61 0.68 0.74 0.80 0.95 0.98 0.91 0.98 1.14 1.18 1.18 1.16 1.12 1.09 1.15 1.20 0.99 0.90 0.69 0.72 0.67 0.56 0.50 0.53 0.53 0.47 0.47 0.48 0.50 0.53
0.51 0.51 0.51 0.52 0.50 0.49 0.52 0.59 0.63 0.69 0.63 0.68 0.74 0.80 0.88 0.91 0.93 1.00 1.11 1.23 1.21 1.10 1.09 1.18 1.07 0.92 0.78 0.81 0.73 0.60 0.56 0.59 0.56 0.46 0.41 0.40 0.41 0.46
0.47 0.45 0.42 0.38 0.38 0.38 0.46 0.62 0.73 0.69 0.64 0.67 0.81 0.97 1.04 1.02 0.93 0.98 1.10 1.20 1.20 1.21 1.09 1.12 1.14 1.03 0.94 0.78 0.75 0.75 0.76 0.81 0.73 0.56 0.44 0.41 0.42 0.45
0.49 0.48 0.45 0.36 0.32 0.33 0.40 0.53 0.59 0.57 0.65 0.84 1.05 1.13 1.11 1.04 0.95 0.92 1.01 1.12 1.18 1.23 1.06 1.05 1.12 1.14 1.18 0.98 0.75 0.79 0.90 1.01 1.00 0.82 0.60 0.52 0.48 0.45
0.45 0.43 0.39 0.36 0.31 0.33 0.36 0.41 0.44 0.53 0.76 1.00 1.11 1.06 0.91 0.80 0.78 0.75 0.78 0.89 1.03 1.03 0.96 0.99 1.11 1.16 1.18 1.09 0.90 0.81 0.94 1.09 1.17 1.10 0.90 0.74 0.67 0.60
0.39 0.37 0.37 0.39 0.40 0.45 0.46 0.44 0.51 0.69 0.88 1.00 1.02 0.91 0.78 0.71 0.67 0.69 0.67 0.78 0.84 0.76 0.67 0.75 0.93 1.02 1.12 1.13 1.08 1.09 1.16 1.28 1.30 1.27 1.17 0.97 0.82 0.76
0.36 0.41 0.50 0.56 0.57 0.58 0.61 0.68 0.72 0.75 0.77 0.87 0.88 0.79 0.67 0.63 0.62 0.61 0.65 0.71 0.80 0.78 0.68 0.66 0.76 0.94 1.07 1.06 1.14 1.23 1.28 1.48 1.47 1.35 1.30 1.24 1.08 0.89
0.34 0.48 0.66 0.72 0.72 0.69 0.66 0.67 0.71 0.70 0.72 0.73 0.71 0.68 0.65 0.60 0.58 0.54 0.58 0.61 0.71 0.73 0.71 0.67 0.71 0.76 0.78 0.84 0.98 1.06 1.15 1.31 1.42 1.37 1.34 1.42 1.39 1.16
0.37 0.59 0.71 0.73 0.74 0.67 0.61 0.58 0.58 0.58 0.57 0.58 0.60 0.61 0.62 0.60 0.58 0.54 0.53 0.57 0.64 0.62 0.61 0.61 0.64 0.70 0.68 0.64 0.81 0.96 1.01 1.18 1.28 1.25 1.19 1.34 1.47 1.27
0.41 0.54 0.62 0.67 0.67 0.60 0.57 0.56 0.56 0.55 0.51 0.51 0.54 0.56 0.57 0.56 0.56 0.56 0.54 0.56 0.58 0.57 0.54 0.50 0.53 0.61 0.69 0.76 0.82 0.94 0.97 1.05 1.08 1.07 1.07 1.13 1.31 1.26
0.41 0.48 0.52 0.56 0.57 0.55 0.53 0.51 0.51 0.52 0.50 0.48 0.49 0.51 0.53 0.52 0.49 0.49 0.49 0.46 0.50 0.51 0.51 0.49 0.49 0.55 0.63 0.72 0.88 0.97 0.96 0.84 0.82 0.88 0.92 1.00 1.11 1.10
0.39 0.41 0.43 0.44 0.44 0.46 0.47 0.46 0.44 0.44 0.45 0.44 0.45 0.48 0.49 0.49 0.47 0.43 0.39 0.35 0.39 0.44 0.48 0.50 0.48 0.44 0.46 0.53 0.71 0.86 0.89 0.93 0.84 0.76 0.76 0.82 0.84 0.76
0.34 0.38 0.39 0.37 0.36 0.36 0.36 0.37 0.38 0.37 0.35 0.37 0.43 0.48 0.49 0.48 0.44 0.39 0.37 0.39 0.41 0.43 0.44 0.43 0.41 0.39 0.42 0.52 0.67 0.82 0.82 0.75 0.72 0.75 0.72 0.58 0.49 0.54
0.36 0.36 0.33 0.32 0.31 0.31 0.32 0.32 0.32 0.32 0.33 0.34 0.38 0.43 0.43 0.41 0.37 0.33 0.31 0.30 0.30 0.33 0.37 0.40 0.39 0.39 0.41 0.45 0.52 0.60 0.60 0.54 0.46 0.48 0.59 0.62 0.52 0.51